Temp
67 68 68 68 62 56 49 56 61 64 65 72 73 71 68 68 67 58 74 78 79 77 77 79 80 80 80 79 79 78 78 79 79 79 79 79 79 80 79 79 80 80 81 81 81 81 81 81 81
67 71 68 60 55 49 52 58 61 65 69 71 74 71 70 67 74 73 72 78 80 79 77 78 80 79 80 79 79 78 78 79 79 79 79 79 79 79 79 79 80 81 81 81 81 81 81 81 81
69 69 64 54 46 49 52 59 63 67 73 72 70 75 71 68 74 74 76 78 78 77 76 78 79 79 80 79 79 78 78 78 79 79 79 79 79 79 79 79 79 80 81 81 81 81 80 80 80
69 66 60 55 47 53 57 61 67 67 72 73 73 68 73 76 74 76 80 80 77 75 76 78 79 79 79 79 79 79 79 79 79 79 79 79 79 79 78 79 79 80 81 81 81 80 80 80 80
63 58 52 48 49 55 60 65 67 66 69 72 74 67 68 75 77 77 78 79 74 74 76 77 79 79 79 79 79 79 79 78 78 79 79 79 79 78 78 79 79 80 80 80 80 80 79 79 79
61 56 50 46 53 61 63 66 67 67 69 71 70 68 64 74 72 74 76 75 77 75 75 75 78 78 78 79 78 78 78 78 78 78 78 78 78 78 78 78 79 79 79 79 80 79 78 78 78
58 52 47 45 53 59 65 69 66 65 68 70 71 64 65 69 73 73 74 73 72 74 73 72 73 75 78 78 78 78 78 78 78 78 78 78 78 78 78 78 78 78 78 78 79 78 78 78 78
57 55 46 47 52 54 65 66 63 66 65 73 73 64 60 68 74 74 72 70 70 69 69 67 68 69 71 74 78 78 78 78 78 78 78 78 78 78 78 77 77 78 78 78 78 78 78 77 77
59 53 49 49 54 56 63 61 67 70 66 68 69 69 71 74 75 72 72 70 69 73 66 66 68 68 71 74 74 74 75 76 76 76 76 76 75 75 76 76 78 78 78 78 78 78 77 77 77
58 51 54 59 60 60 62 64 65 65 64 64 66 72 73 73 72 69 67 66 67 68 68 67 67 68 69 75 68 69 71 70 71 72 72 73 73 73 76 77 78 78 78 78 78 78 78 78 78
54 56 58 62 66 66 65 64 65 64 58 63 64 67 70 69 67 67 66 66 64 65 67 67 66 66 67 67 66 66 66 67 68 68 68 69 72 71 72 73 73 73 75 76 77 76 77 77 77
55 61 64 65 68 66 66 68 65 65 65 71 72 71 68 66 65 65 64 64 64 65 65 66 66 65 65 65 65 65 65 65 65 66 67 67 68 69 69 70 71 71 72 73 74 75 75 75 76
56 62 63 67 65 64 68 64 64 61 69 70 69 69 66 65 64 64 66 65 65 65 65 65 65 64 64 64 64 64 64 64 64 65 66 65 66 66 67 68 69 70 71 71 70 73 74 75 76
61 62 62 65 64 64 64 61 65 65 68 67 67 65 65 65 64 63 64 63 64 65 64 65 66 65 64 64 63 63 64 64 65 64 65 66 65 64 65 66 67 67 68 69 69 70 72 72 74
62 58 62 61 64 60 67 60 59 67 67 65 65 65 65 65 65 65 65 64 64 64 65 64 64 64 63 63 64 63 64 65 64 64 65 66 66 65 65 64 65 67 68 67 67 68 69 69 71
58 55 51 58 65 62 64 54 64 65 66 63 64 65 65 64 65 66 67 65 64 64 64 64 69 64 62 61 62 63 63 63 63 63 64 66 66 66 63 63 64 65 65 66 66 67 69 70 70
53 48 49 57 64 64 61 56 63 64 64 62 62 63 65 64 65 66 68 66 65 65 64 64 64 63 62 62 61 62 62 62 63 62 63 64 66 67 64 62 64 64 63 63 64 65 67 67 70
49 49 49 51 57 58 57 56 59 62 64 63 61 62 63 63 65 67 66 66 66 65 63 63 63 62 62 62 61 61 61 62 62 62 62 64 64 65 63 62 62 62 61 61 62 63 64 66 68
56 53 51 55 60 57 54 55 59 60 58 59 59 60 60 62 66 66 67 66 65 64 62 62 62 61 60 60 60 60 60 61 62 62 63 63 63 64 62 61 61 61 59 60 61 62 62 63 67
56 52 50 56 60 57 54 54 56 58 59 60 60 59 60 62 64 66 65 65 64 63 62 61 61 60 60 59 59 60 60 60 60 60 61 62 62 62 62 61 61 60 59 59 60 60 60 62 65
52 52 51 52 56 56 53 51 52 56 56 59 60 62 62 62 62 64 65 64 63 61 62 62 60 60 60 60 59 59 58 58 58 59 59 61 62 62 60 60 60 60 58 58 58 59 59 59 62
49 58 57 55 51 45 51 41 47 50 53 54 56 58 60 63 64 63 64 63 62 63 63 62 60 60 61 59 58 57 55 54 55 55 57 58 59 59 60 60 60 59 60 57 57 60 60 59 58
55 59 54 53 46 43 45 41 46 49 49 50 55 58 60 62 63 63 64 63 63 63 60 59 59 58 57 57 56 55 53 53 54 54 54 55 56 57 58 58 58 58 57 57 57 57 57 57 56
61 55 49 45 42 36 42 42 42 45 50 52 56 58 61 62 64 64 64 62 61 60 58 58 57 56 56 56 55 53 51 51 52 53 52 53 55 55 55 56 56 56 56 55 56 56 55 56 56
53 45 34 35 33 35 44 41 45 52 56 58 58 59 60 61 61 61 60 59 58 57 56 58 56 55 54 53 53 52 51 51 49 50 50 49 51 51 53 55 55 55 55 56 56 55 54 53 53
48 47 33 28 28 36 44 38 46 55 58 60 61 60 60 58 58 58 57 56 56 56 55 55 53 52 52 52 51 51 50 49 49 48 48 48 50 52 53 54 54 54 53 55 55 52 52 53 53
49 45 47 37 35 33 38 45 53 54 55 57 57 58 57 58 57 56 56 55 54 54 52 51 51 51 51 51 50 48 48 46 46 48 50 50 51 52 52 52 52 52 52 53 54 54 53 53 53
53 55 43 38 32 31 36 39 41 49 53 55 55 54 57 56 55 55 54 54 53 52 52 51 50 49 49 47 46 46 46 48 49 49 47 48 49 50 50 50 50 51 52 52 52 53 54 53 54
49 45 43 42 36 28 26 37 48 52 54 54 54 55 55 54 54 54 53 53 52 51 50 49 48 47 46 45 46 47 47 48 48 47 47 47 48 48 48 49 49 49 50 52 52 52 53 53 53
52 50 46 36 37 31 30 36 52 52 52 52 53 55 54 53 53 53 52 51 50 49 48 47 46 44 45 47 46 46 46 46 46 46 47 48 47 48 48 48 49 49 50 51 51 51 53 52 52
MSLP
1009.58 1009.53 1009.82 1010.30 1011.62 1011.84 1011.92 1011.26 1010.58 1010.20 1010.17 1010.52 1010.66 1010.86 1011.09 1011.84 1012.18 1012.70 1012.23 1011.74 1011.65 1011.95 1011.82 1011.84 1011.70 1012.03 1012.42 1012.69 1012.92 1013.01 1013.22 1013.51 1013.66 1013.82 1013.97 1014.11 1014.32 1014.58 1014.72 1014.77 1014.90 1014.93 1014.89 1014.90 1014.94 1014.96 1015.04 1015.06 1015.12
1009.50 1009.49 1009.95 1010.71 1011.92 1012.99 1012.30 1010.99 1010.42 1010.10 1010.24 1010.66 1010.75 1011.02 1011.37 1012.02 1012.05 1012.08 1012.23 1011.78 1011.34 1011.52 1011.56 1012.10 1012.06 1012.26 1012.61 1012.84 1013.17 1013.27 1013.42 1013.68 1013.94 1014.08 1014.26 1014.38 1014.49 1014.61 1014.70 1014.87 1014.97 1015.02 1015.02 1015.02 1015.01 1015.00 1014.98 1015.01 1015.07
1009.39 1009.54 1010.51 1011.84 1012.83 1012.93 1012.04 1010.78 1010.49 1010.39 1010.40 1010.62 1010.93 1011.12 1011.50 1012.43 1012.35 1012.60 1012.50 1012.00 1011.74 1012.23 1012.41 1012.53 1012.59 1012.90 1013.00 1013.05 1013.13 1013.54 1013.58 1013.67 1013.94 1014.17 1014.32 1014.46 1014.55 1014.68 1014.70 1014.76 1014.88 1014.95 1014.98 1015.05 1015.14 1015.11 1015.04 1015.09 1015.16
1009.69 1010.35 1012.02 1012.12 1012.78 1012.28 1011.55 1010.68 1010.35 1010.67 1010.40 1010.49 1010.88 1011.49 1012.13 1013.14 1012.88 1012.95 1012.48 1012.36 1012.37 1012.69 1012.64 1012.83 1013.00 1013.15 1013.30 1013.39 1013.37 1013.62 1013.90 1013.98 1014.07 1014.21 1014.41 1014.46 1014.55 1014.59 1014.64 1014.57 1014.59 1014.64 1014.69 1014.83 1014.92 1014.97 1014.95 1014.89 1014.96
1010.42 1011.52 1012.72 1013.05 1012.63 1011.98 1011.29 1010.80 1010.75 1010.77 1010.70 1010.78 1010.81 1011.93 1012.95 1013.51 1013.34 1013.12 1012.76 1012.94 1013.04 1013.33 1013.20 1013.16 1013.23 1013.40 1013.50 1013.60 1013.72 1013.78 1014.04 1014.53 1014.46 1014.51 1014.69 1014.66 1014.57 1014.54 1014.64 1014.69 1014.75 1014.79 1014.78 1014.77 1014.84 1014.87 1014.82 1014.81 1014.83
1011.31 1012.46 1013.44 1013.44 1012.56 1011.61 1010.96 1010.83 1010.98 1011.09 1011.11 1011.33 1011.60 1012.41 1014.31 1014.48 1014.02 1013.85 1013.36 1013.21 1012.97 1013.44 1013.59 1013.59 1013.63 1013.70 1013.74 1013.91 1013.96 1014.07 1014.07 1014.38 1014.68 1014.76 1014.88 1014.97 1014.95 1014.90 1014.85 1014.77 1014.68 1014.63 1014.65 1014.71 1014.70 1014.75 1014.74 1014.68 1014.61
1011.64 1012.90 1013.65 1013.24 1012.57 1011.66 1011.36 1011.06 1011.43 1011.74 1011.70 1012.00 1012.03 1013.24 1014.45 1014.60 1014.73 1014.58 1014.15 1013.98 1013.93 1014.02 1013.98 1014.19 1014.08 1013.89 1013.91 1014.05 1014.22 1014.38 1014.26 1014.48 1014.74 1014.80 1014.89 1014.94 1015.00 1014.90 1014.89 1014.86 1014.77 1014.75 1014.60 1014.58 1014.50 1014.53 1014.52 1014.48 1014.47
1011.58 1012.70 1013.33 1012.91 1012.36 1012.20 1011.66 1011.67 1012.03 1012.30 1012.66 1012.54 1012.58 1013.59 1014.78 1014.96 1014.90 1014.76 1014.53 1014.54 1014.67 1014.72 1014.78 1014.87 1014.60 1014.39 1014.29 1014.38 1014.24 1014.32 1014.62 1014.63 1014.69 1014.71 1014.75 1014.77 1014.77 1014.72 1014.69 1014.71 1014.61 1014.59 1014.56 1014.52 1014.56 1014.43 1014.30 1014.22 1014.20
1011.22 1012.40 1013.06 1012.26 1011.93 1012.14 1011.83 1012.04 1012.88 1013.08 1013.23 1013.61 1013.53 1013.82 1014.49 1014.70 1014.75 1014.52 1014.57 1014.67 1014.70 1014.91 1015.25 1015.20 1014.89 1014.66 1014.64 1014.69 1014.76 1014.86 1015.02 1014.89 1014.80 1014.61 1014.63 1014.63 1014.61 1014.57 1014.55 1014.46 1014.37 1014.23 1014.22 1014.12 1014.18 1014.12 1014.00 1013.92 1013.73
1011.28 1012.28 1012.03 1011.36 1011.22 1011.86 1012.20 1012.27 1012.92 1013.74 1014.06 1014.75 1014.43 1014.46 1014.54 1014.60 1014.46 1014.66 1015.18 1015.54 1015.57 1015.70 1015.65 1015.40 1015.20 1015.23 1015.24 1015.24 1015.35 1015.30 1015.40 1015.24 1015.04 1014.82 1014.76 1014.63 1014.50 1014.48 1014.32 1014.14 1014.09 1013.99 1013.78 1013.60 1013.52 1013.57 1013.48 1013.47 1013.35
1011.08 1011.42 1011.33 1011.02 1010.89 1011.50 1012.12 1012.75 1012.96 1013.68 1014.57 1014.16 1014.31 1014.62 1014.93 1015.04 1015.16 1015.33 1015.65 1015.89 1016.01 1016.01 1015.94 1015.82 1015.82 1015.73 1015.62 1015.65 1015.67 1015.62 1015.56 1015.39 1015.18 1015.04 1014.88 1014.62 1014.48 1014.30 1014.19 1013.98 1013.84 1013.72 1013.52 1013.30 1013.08 1012.98 1012.90 1012.79 1012.77
1010.85 1010.69 1010.55 1010.78 1010.82 1011.60 1012.09 1012.79 1013.32 1013.39 1013.46 1013.40 1013.74 1014.38 1015.08 1015.58 1015.92 1015.98 1016.19 1016.41 1016.42 1016.46 1016.49 1016.41 1016.16 1016.00 1015.89 1015.77 1015.73 1015.66 1015.55 1015.45 1015.37 1015.22 1014.96 1014.78 1014.48 1014.22 1014.09 1013.97 1013.79 1013.61 1013.30 1013.05 1012.89 1012.61 1012.33 1012.22 1012.16
1010.77 1010.48 1010.33 1010.64 1011.13 1011.46 1012.00 1012.64 1013.11 1013.73 1013.74 1014.24 1014.68 1015.08 1015.52 1015.90 1016.05 1016.18 1016.13 1016.32 1016.47 1016.37 1016.26 1016.16 1016.07 1016.10 1015.95 1015.84 1015.78 1015.66 1015.60 1015.42 1015.34 1015.18 1014.91 1014.70 1014.54 1014.42 1014.19 1014.07 1013.88 1013.57 1013.27 1013.05 1012.77 1012.32 1011.92 1011.72 1011.44
1010.58 1010.47 1010.54 1010.73 1011.32 1011.48 1012.04 1012.84 1012.94 1014.26 1014.22 1014.90 1015.38 1015.68 1015.93 1016.10 1016.10 1016.31 1016.45 1016.46 1016.30 1016.19 1016.21 1016.03 1015.86 1015.80 1015.78 1015.92 1015.80 1015.78 1015.62 1015.45 1015.30 1015.18 1015.02 1014.79 1014.72 1014.58 1014.33 1014.15 1013.74 1013.50 1013.22 1012.89 1012.47 1012.18 1011.74 1011.26 1011.12
1010.52 1010.84 1010.88 1010.95 1011.29 1011.90 1012.15 1013.46 1013.39 1013.84 1014.63 1015.30 1015.77 1016.10 1016.39 1016.46 1016.26 1015.94 1015.97 1016.19 1016.16 1016.30 1016.15 1016.20 1016.24 1016.09 1016.05 1016.02 1015.82 1015.81 1015.73 1015.53 1015.36 1015.15 1014.88 1014.76 1014.62 1014.47 1014.26 1014.10 1013.70 1013.40 1013.11 1012.72 1012.25 1011.84 1011.40 1011.01 1010.65
1011.11 1011.35 1011.63 1011.16 1011.24 1011.88 1011.87 1013.03 1013.10 1013.78 1014.62 1015.42 1015.94 1016.19 1016.36 1016.36 1015.96 1015.73 1015.50 1015.78 1016.10 1016.21 1016.17 1016.12 1016.19 1016.14 1016.22 1016.29 1016.12 1015.98 1015.73 1015.65 1015.47 1015.24 1014.98 1014.70 1014.50 1014.36 1014.21 1013.98 1013.57 1013.20 1012.89 1012.55 1012.20 1011.75 1011.22 1010.61 1010.28
1011.99 1011.87 1011.77 1011.34 1011.15 1011.46 1012.19 1012.62 1012.82 1013.65 1014.55 1015.45 1015.79 1016.06 1016.29 1016.30 1015.98 1015.61 1015.38 1015.66 1015.95 1015.93 1015.88 1015.94 1015.95 1016.01 1016.14 1016.14 1015.97 1015.99 1015.88 1015.74 1015.45 1015.26 1015.01 1014.71 1014.38 1014.13 1014.02 1013.90 1013.46 1013.04 1012.70 1012.34 1011.98 1011.50 1011.21 1010.44 1009.92
1012.11 1011.78 1011.58 1011.37 1011.34 1011.60 1012.01 1012.37 1013.00 1013.61 1014.30 1014.76 1015.42 1015.82 1016.14 1016.17 1015.56 1015.32 1015.48 1015.80 1015.76 1015.70 1015.86 1015.95 1015.85 1015.93 1015.91 1015.87 1015.92 1015.97 1015.82 1015.49 1015.20 1015.02 1014.78 1014.40 1014.09 1013.85 1013.70 1013.47 1013.22 1012.82 1012.57 1012.15 1011.76 1011.36 1010.86 1010.33 1009.65
1011.49 1011.56 1011.49 1011.24 1011.22 1011.60 1012.04 1012.40 1013.09 1013.83 1014.63 1015.15 1015.67 1015.94 1016.14 1016.00 1015.27 1015.29 1015.54 1015.81 1015.89 1015.87 1015.92 1015.79 1015.73 1015.57 1015.70 1015.83 1016.02 1016.01 1015.75 1015.42 1015.00 1014.64 1014.41 1014.26 1014.03 1013.72 1013.50 1013.30 1012.99 1012.52 1012.24 1011.84 1011.51 1011.14 1010.63 1009.78 1009.33
1011.26 1011.49 1011.72 1011.61 1011.53 1011.81 1012.36 1012.79 1013.25 1013.91 1014.33 1014.58 1014.96 1015.57 1015.71 1015.74 1015.40 1015.30 1015.38 1015.48 1015.63 1015.56 1015.59 1015.73 1015.53 1015.54 1015.60 1015.79 1015.71 1015.71 1015.58 1015.25 1015.00 1014.56 1014.20 1013.85 1013.66 1013.49 1013.17 1012.93 1012.60 1012.24 1011.79 1011.38 1011.05 1010.79 1010.37 1009.67 1009.18
1011.49 1011.65 1011.92 1012.15 1012.20 1012.47 1012.91 1013.65 1013.87 1014.12 1014.38 1014.39 1014.51 1014.72 1015.21 1015.30 1015.26 1015.17 1015.08 1015.12 1015.10 1015.30 1015.37 1015.46 1015.44 1015.41 1015.52 1015.64 1015.80 1015.70 1015.51 1015.22 1014.94 1014.42 1014.05 1013.65 1013.38 1013.00 1012.65 1012.18 1011.88 1011.52 1011.24 1010.79 1010.40 1010.16 1009.90 1009.28 1008.87
1011.60 1011.75 1012.24 1012.74 1013.42 1014.04 1014.22 1014.99 1014.65 1014.74 1014.59 1014.43 1014.52 1014.57 1014.84 1014.92 1014.90 1014.90 1014.79 1014.75 1015.06 1015.15 1015.15 1015.04 1015.31 1015.63 1015.75 1015.85 1016.00 1016.14 1016.10 1015.90 1015.18 1014.73 1014.09 1013.52 1013.04 1012.42 1011.88 1011.30 1010.93 1010.55 1010.23 1009.86 1009.61 1009.36 1009.12 1008.90 1008.66
1011.77 1012.18 1013.25 1013.82 1014.67 1015.19 1015.56 1015.98 1015.05 1015.08 1014.74 1014.60 1014.58 1014.69 1014.68 1014.66 1014.62 1014.60 1014.67 1014.80 1014.73 1014.95 1015.28 1015.38 1015.61 1015.88 1016.12 1016.20 1016.24 1016.30 1016.17 1015.97 1015.36 1014.75 1013.90 1013.21 1012.66 1012.13 1011.60 1011.04 1010.46 1009.96 1009.55 1009.12 1008.86 1008.65 1008.52 1008.36 1008.34
1012.04 1013.21 1014.71 1015.71 1016.34 1016.76 1016.35 1016.53 1015.84 1015.28 1014.52 1014.48 1014.49 1014.49 1014.50 1014.48 1014.44 1014.35 1014.54 1014.52 1015.08 1015.42 1015.78 1015.94 1016.02 1016.44 1016.44 1016.32 1016.40 1016.48 1016.35 1015.85 1015.13 1014.36 1013.66 1012.92 1012.32 1011.82 1011.38 1010.82 1010.21 1009.64 1009.12 1008.66 1008.27 1008.03 1007.92 1007.81 1007.77
1012.74 1014.53 1016.38 1017.58 1018.24 1017.92 1016.88 1016.86 1015.28 1014.36 1014.02 1013.86 1014.04 1014.25 1014.30 1014.28 1014.32 1014.38 1014.55 1015.19 1015.69 1016.21 1016.36 1016.47 1016.68 1016.77 1016.75 1016.75 1016.64 1016.52 1016.26 1015.82 1015.20 1014.43 1013.60 1012.84 1012.10 1011.52 1010.77 1010.26 1009.62 1009.08 1008.51 1007.89 1007.48 1007.45 1007.31 1007.38 1007.21
1013.22 1014.67 1016.64 1018.14 1019.02 1018.60 1017.50 1016.48 1014.63 1013.98 1013.58 1013.56 1013.68 1013.87 1014.08 1014.12 1014.32 1014.87 1015.39 1015.80 1016.43 1016.77 1016.94 1017.14 1017.13 1017.09 1017.12 1016.96 1016.76 1016.49 1016.12 1015.65 1015.08 1014.31 1013.57 1012.72 1011.77 1010.84 1010.22 1009.55 1009.05 1008.53 1008.15 1007.64 1006.89 1006.82 1006.77 1006.63 1006.35
1013.56 1014.92 1016.18 1018.06 1019.64 1019.41 1017.85 1016.28 1014.62 1014.02 1013.84 1013.73 1013.80 1013.97 1014.21 1014.33 1014.87 1015.58 1016.05 1016.61 1017.00 1017.21 1017.52 1017.70 1017.71 1017.58 1017.40 1017.16 1016.86 1016.45 1015.93 1015.47 1014.76 1013.82 1012.92 1012.02 1011.14 1010.36 1009.55 1008.96 1008.36 1007.78 1007.38 1006.94 1006.34 1005.91 1005.90 1005.74 1005.52
1012.55 1014.25 1016.25 1018.08 1019.72 1020.00 1018.54 1017.16 1015.67 1014.62 1014.16 1013.96 1014.10 1014.25 1014.47 1014.80 1015.61 1016.23 1016.82 1017.17 1017.54 1017.90 1018.16 1018.21 1018.09 1017.99 1017.72 1017.43 1017.01 1016.31 1015.66 1014.89 1014.06 1013.38 1012.57 1011.70 1010.74 1009.91 1009.07 1008.30 1007.66 1006.95 1006.45 1006.03 1005.58 1005.17 1004.92 1004.77 1004.43
1013.30 1014.40 1016.19 1017.75 1019.08 1019.81 1019.13 1017.41 1014.66 1014.16 1013.70 1013.84 1013.86 1014.62 1014.87 1015.54 1016.16 1016.79 1017.32 1017.74 1018.15 1018.30 1018.24 1018.28 1018.26 1018.10 1017.79 1017.50 1016.79 1016.08 1015.33 1014.49 1013.88 1013.12 1012.18 1011.22 1010.21 1009.32 1008.42 1007.56 1006.77 1006.14 1005.51 1005.00 1004.66 1004.30 1004.00 1003.85 1003.64
1012.44 1013.67 1015.27 1017.50 1019.06 1019.47 1018.86 1016.38 1014.46 1014.04 1013.92 1013.99 1014.42 1014.71 1015.32 1015.92 1016.72 1017.42 1017.87 1018.22 1018.22 1018.22 1018.48 1018.57 1018.46 1018.33 1017.98 1017.34 1016.74 1016.00 1015.22 1014.45 1013.54 1012.63 1011.70 1010.66 1009.60 1008.65 1007.74 1006.73 1005.86 1005.10 1004.49 1004.06 1003.70 1003.37 1003.18 1003.01 1002.86
Wind_Speed
5 4 3 4 5 7 4 2 2 3 2 3 5 3 4 4 1 2 4 6 8 6 6 3 10 9 10 10 10 11 11 10 10 10 10 10 10 9 8 7 6 7 7 7 7 7 6 6 6
3 0 4 3 7 6 5 3 3 4 3 7 5 2 2 4 1 1 2 5 6 4 6 4 7 9 9 9 9 10 10 9 9 9 8 8 8 8 8 6 6 7 7 6 6 6 6 7 7
1 3 5 6 4 5 4 3 6 3 7 3 4 4 2 4 2 4 4 5 7 6 5 5 7 6 6 7 9 7 9 10 10 10 9 9 9 8 8 7 7 7 7 6 6 7 6 6 7
3 5 6 7 0 3 4 3 6 5 3 4 5 6 5 8 3 5 2 6 8 6 7 8 8 6 4 4 5 5 5 6 8 9 9 9 9 9 9 10 10 10 9 9 9 8 8 8 8
5 4 6 4 4 3 3 5 5 4 3 3 2 4 6 8 10 9 10 9 11 7 6 7 10 8 5 3 2 3 2 1 3 5 7 8 9 9 9 9 9 9 9 10 10 9 9 9 9
5 4 7 2 6 7 3 6 3 2 2 5 6 5 4 4 11 9 9 9 10 9 7 6 8 6 6 5 4 2 1 2 4 5 6 7 7 7 8 9 10 11 11 11 11 11 10 10 10
7 5 4 1 4 5 5 3 4 3 5 6 2 5 3 9 7 6 11 12 12 10 10 8 7 7 7 6 5 5 3 3 5 5 7 8 9 9 10 10 11 11 11 12 12 12 12 11 11
6 6 3 1 1 4 5 5 0 7 3 3 4 4 4 2 4 7 9 9 11 10 9 7 6 7 6 5 9 7 6 5 6 6 7 8 10 10 11 11 11 13 13 13 13 13 13 12 12
4 7 2 1 3 2 5 6 5 6 6 6 5 3 8 7 4 9 9 10 8 10 8 5 9 11 9 8 8 10 11 12 11 8 9 8 4 5 8 10 14 14 14 14 15 15 15 14 14
6 5 6 3 3 6 5 5 7 5 5 6 10 9 6 5 7 11 8 7 7 6 6 7 8 8 6 6 6 6 5 4 4 5 5 4 5 5 9 11 15 15 15 15 16 17 17 15 8
1 4 4 1 5 7 8 5 4 14 3 5 19 13 6 7 8 9 6 6 5 3 4 6 6 5 6 5 3 2 2 3 4 6 5 4 4 3 4 4 4 5 10 6 8 8 7 10 8
2 3 4 5 7 7 9 12 7 4 9 15 18 15 8 9 8 8 7 6 4 4 4 3 5 6 6 4 4 4 3 3 3 4 5 4 3 3 3 3 5 5 4 6 6 5 8 9 10
3 3 3 5 7 6 7 4 5 3 7 7 7 7 9 8 7 4 7 7 6 5 4 4 4 5 4 5 4 4 4 3 3 3 4 4 5 5 4 4 4 5 5 5 6 8 8 9 10
1 2 1 5 6 5 9 3 4 3 7 7 7 6 5 7 8 5 5 6 6 6 3 2 3 3 3 3 2 2 3 3 3 4 4 5 4 3 3 4 4 4 4 5 6 7 7 7 8
1 4 5 1 6 4 9 5 3 9 10 10 8 6 6 8 7 10 10 8 8 5 6 6 4 3 3 1 1 2 2 3 3 3 4 5 4 4 4 4 4 4 5 6 6 7 7 7 7
4 6 3 4 6 5 5 7 6 11 16 13 10 9 9 8 8 7 8 7 8 6 8 7 5 7 6 4 3 3 3 3 4 4 3 4 4 4 4 3 4 4 4 4 5 6 8 7 7
7 3 2 5 7 6 4 6 5 8 10 9 9 8 7 6 7 6 6 5 7 7 7 6 7 7 7 5 4 4 4 3 4 3 3 5 5 4 3 3 5 5 4 4 5 6 6 7 8
4 2 2 3 1 2 6 4 6 10 12 14 8 8 8 8 11 9 6 4 6 7 5 6 5 6 5 3 2 2 3 4 4 4 4 5 4 5 4 4 5 4 4 5 5 6 6 7 7
4 3 0 3 0 3 5 3 8 6 4 7 7 7 7 9 5 4 4 7 7 7 7 8 6 7 4 3 2 2 3 3 4 4 5 5 4 5 5 5 6 7 6 7 7 6 9 6 4
2 3 0 3 4 4 5 2 3 6 7 9 12 9 9 6 7 4 6 6 8 8 9 8 8 7 4 2 3 3 2 3 3 4 5 5 5 5 6 6 8 9 8 8 8 6 6 6 4
2 5 3 3 4 4 3 5 4 1 2 3 7 9 6 10 8 6 7 9 8 8 8 7 7 7 4 3 2 3 2 3 3 4 4 4 9 11 11 11 9 10 7 8 9 7 9 8 5
3 3 2 2 4 3 3 5 5 4 7 1 4 8 7 6 6 7 7 7 5 6 5 5 3 2 2 4 1 2 2 3 3 4 7 9 11 12 15 14 12 11 9 10 8 8 8 4 7
5 4 3 2 4 3 3 4 8 4 3 2 6 7 6 6 8 8 7 5 2 4 5 4 5 7 5 5 4 3 5 4 5 8 12 12 12 12 13 13 14 14 10 11 10 9 9 7 6
7 6 8 5 3 2 3 5 6 4 6 3 3 5 6 5 6 5 4 3 5 6 6 6 7 5 6 6 7 6 7 11 12 13 12 11 10 10 12 13 12 13 13 12 10 10 9 7 7
6 7 4 5 5 6 3 2 9 5 6 7 8 8 7 6 5 5 1 5 6 7 7 6 7 6 7 7 7 8 11 13 13 13 12 14 11 11 13 16 15 13 13 12 10 9 7 8 9
3 8 8 6 3 5 2 5 6 3 6 5 6 6 4 3 3 2 7 6 6 6 7 6 7 8 9 9 10 10 11 8 9 12 12 11 12 12 14 13 13 13 14 15 10 5 7 9 10
4 3 4 8 3 2 3 6 7 2 2 3 6 4 4 4 4 6 6 6 6 7 7 7 8 10 10 11 11 11 10 11 12 14 13 11 13 13 15 15 15 15 14 15 14 10 10 11 11
4 7 4 3 2 4 5 5 6 5 8 7 7 6 6 2 6 5 6 6 6 6 6 5 6 8 10 10 10 11 12 14 15 14 16 16 15 16 16 16 16 15 15 14 13 10 10 12 8
2 1 6 5 5 6 1 7 7 10 11 11 9 6 4 6 5 5 6 6 5 4 6 8 8 9 11 12 13 16 15 14 15 14 14 15 16 16 16 16 16 15 15 13 12 13 12 12 10
3 6 6 7 5 2 5 9 3 7 4 3 2 5 4 6 6 6 5 4 5 8 8 8 10 11 12 15 16 16 15 14 14 14 16 16 16 15 15 15 15 15 14 13 13 13 12 12 11
Wind_Direction
324 329 116 53 62 60 344 344 262 56 141 61 94 140 159 53 80 204 260 174 101 85 37 102 120 115 115 106 108 113 110 107 109 113 114 117 119 124 127 135 146 156 159 165 170 164 163 170 171
333 141 48 83 79 70 282 276 156 179 67 93 74 94 37 86 49 147 281 1 84 100 126 129 113 121 120 109 111 119 120 124 125 127 128 128 133 139 143 147 158 171 177 181 185 188 187 192 198
298 42 76 85 102 146 183 267 158 101 109 108 127 55 49 15 90 35 322 91 80 73 54 56 87 95 112 121 130 134 138 146 152 155 156 157 159 163 166 171 180 190 198 208 217 216 211 213 219
29 12 38 77 42 224 176 258 116 109 287 190 126 72 86 43 37 331 318 116 80 63 79 90 74 60 79 117 122 133 151 166 172 173 177 178 182 185 190 189 192 200 207 215 219 220 224 221 217
35 58 59 63 303 251 248 208 143 146 341 43 75 99 65 18 0 18 52 78 83 70 72 67 57 56 65 78 92 115 113 287 230 218 218 211 203 200 204 208 216 226 231 233 235 235 232 233 232
42 87 60 48 317 312 4 94 113 92 95 49 53 78 69 322 21 12 45 62 77 73 56 53 65 71 64 48 45 40 83 256 278 284 268 260 256 250 242 237 231 233 238 243 244 246 246 245 245
104 79 146 119 319 20 27 354 49 118 79 25 69 79 105 23 48 59 68 59 55 52 53 31 20 19 30 38 35 12 360 300 288 284 282 276 269 260 257 257 255 255 251 248 244 246 248 250 252
100 90 70 357 341 46 331 78 24 45 33 322 356 116 121 210 90 95 71 70 66 57 50 31 29 22 37 33 24 15 358 342 320 299 290 280 273 271 266 264 263 264 262 261 261 256 252 250 252
119 62 76 129 137 82 358 95 15 26 69 47 346 94 130 142 142 78 67 51 54 52 47 42 45 42 31 39 33 34 6 3 353 340 324 310 287 276 278 274 273 272 271 269 266 261 257 255 250
80 89 203 225 141 130 103 79 127 101 109 69 85 98 113 122 91 82 82 76 59 48 40 45 46 44 42 44 33 31 14 0 7 359 331 307 291 285 290 286 285 281 274 268 263 262 259 258 256
150 154 179 222 112 135 123 83 94 123 339 191 151 157 143 98 76 88 70 80 104 84 56 47 63 54 59 55 47 41 31 20 11 1 348 327 318 287 284 283 283 272 274 269 267 263 256 252 246
45 228 185 168 136 126 142 126 152 191 190 167 156 144 129 130 140 143 143 152 147 126 118 86 55 61 50 50 36 23 24 18 15 354 354 354 348 341 323 307 297 280 280 272 269 266 258 247 248
140 269 169 98 132 127 109 107 144 144 133 121 123 124 145 152 162 153 139 137 141 118 122 99 86 71 52 48 27 26 16 18 359 4 358 8 3 355 338 326 310 305 305 291 286 275 267 261 251
226 69 85 128 143 125 126 137 89 240 136 139 139 154 165 168 169 139 156 164 165 156 170 163 108 80 53 57 36 3 349 347 6 358 351 354 359 351 346 327 326 317 307 300 289 281 274 265 257
71 92 23 238 166 144 111 345 189 159 151 162 180 185 190 207 189 178 179 176 176 195 172 189 188 189 211 227 286 311 315 336 340 336 344 345 353 349 345 331 331 321 320 302 291 285 273 267 260
70 57 95 254 151 191 83 230 229 159 165 181 175 179 185 204 208 201 182 174 179 187 187 193 195 193 210 213 234 258 279 301 305 316 318 317 318 321 335 324 310 305 307 308 309 308 308 288 267
10 162 160 302 204 144 178 233 202 155 163 178 179 173 180 214 250 235 205 181 181 207 194 202 199 205 211 220 225 242 259 266 274 292 298 306 312 303 283 292 295 306 304 301 300 303 296 299 290
203 143 230 230 312 176 172 212 165 169 173 194 181 178 188 208 217 210 211 208 224 238 242 246 224 226 224 237 270 276 270 260 246 261 274 284 293 300 311 300 288 288 290 294 290 289 288 274 280
145 118 310 280 201 138 206 184 172 183 181 192 198 194 201 219 247 232 181 213 228 249 248 246 247 247 223 231 257 274 252 274 283 272 283 285 277 280 287 283 292 292 282 281 280 287 291 287 257
134 115 353 294 354 138 182 206 62 158 206 206 192 189 201 223 249 246 216 221 224 233 234 252 244 254 236 193 225 236 250 270 262 280 293 296 295 294 292 279 284 278 279 273 267 266 286 274 248
58 133 159 183 349 44 60 338 346 293 334 279 218 185 187 212 229 263 243 231 233 234 237 256 255 251 247 241 329 321 306 306 317 301 299 300 310 301 292 286 271 270 258 264 259 256 258 268 279
153 188 120 96 80 213 46 260 295 318 314 317 186 164 193 228 232 235 238 238 226 249 257 274 304 266 14 31 357 321 279 282 270 286 289 289 287 286 290 287 281 279 272 265 255 246 249 243 264
205 90 62 70 90 72 0 79 269 320 294 179 152 161 187 234 223 224 229 245 215 353 348 13 74 51 36 34 29 355 319 283 290 293 294 288 291 285 279 277 282 284 276 268 255 261 247 243 247
144 78 46 49 76 30 219 134 275 207 213 202 192 205 218 221 221 239 217 73 27 43 51 53 66 46 25 18 4 350 319 309 307 304 299 297 298 296 289 283 278 278 279 267 264 257 250 242 244
74 61 347 354 10 222 180 89 240 234 232 193 194 201 210 211 228 254 282 52 59 55 43 49 37 21 8 1 343 325 309 305 300 302 301 302 300 295 293 293 288 287 277 263 257 255 249 255 251
151 145 152 201 207 260 295 231 254 249 275 208 194 180 164 221 260 33 58 65 74 57 48 33 19 6 353 338 325 316 306 299 300 302 301 295 291 293 298 294 290 285 295 296 276 239 260 255 251
178 151 162 103 15 42 268 298 318 215 221 226 203 206 200 274 60 87 82 81 66 55 39 28 10 346 335 328 317 314 314 309 302 297 296 297 296 297 291 291 286 280 276 279 278 262 252 246 244
139 151 78 19 146 261 299 282 236 243 231 230 239 214 235 77 101 99 89 68 48 43 24 5 350 329 316 320 321 319 313 316 315 316 310 302 299 298 296 293 288 283 276 271 270 267 249 253 238
98 117 57 114 129 165 227 264 216 210 213 210 227 188 221 121 117 100 77 59 54 32 10 352 338 337 339 331 327 328 323 321 319 310 304 299 298 296 295 290 287 282 277 272 268 264 257 251 250
143 172 142 127 223 177 148 273 294 253 278 183 191 198 117 124 110 88 71 60 27 15 356 345 350 345 339 336 331 326 324 320 314 310 306 304 303 303 299 295 289 283 276 271 264 260 255 253 246